Location: ????????
(55.8351°N, 38.7040°E)
Time: 12:30:22
(UTC+00:00)

Intercosmos 25 Rocket - Pass Details

Date: 14 April 2024
Orbit: 434 x 2971 km, 82.6° (Epoch: 23 May)

Event Time Altitude Azimuth Distance (km) Brightness Sun altitude
Rises 01:12:36 0° 345° (NNW) 2,434 6.9 -9.6°
Reaches altitude 10° 01:14:30 10° 340° (NNW) 1,576 5.8 -9.4°
Maximum altitude 01:17:40 57° 261° (W) 587 3.2 -9.0°
Drops below altitude 10° 01:21:38 10° 183° (S) 1,977 5.8 -8.5°
Sets 01:24:17 0° 179° (S) 3,149 6.9 -8.2°
